Weather History for KBGF - October, 2012

Change the Weather History Date:

Monday, October 22, 2012

  Actual Average (KTHA) Record (KTHA)
Temperature  
Mean Temperature 66 °F -  
Max Temperature 80 °F 69 °F 62 °F (2014)
Min Temperature 53 °F 44 °F 35 °F (2014)
Cooling Degree Days 2    
Growing Degree Days 16 (Base 50)    
Moisture  
Dew Point 50 °F    
Average Humidity 60    
Maximum Humidity 88    
Minimum Humidity 28    
Precipitation  
Precipitation 0.00 in - - ()
Sea Level Pressure  
Sea Level Pressure 30.17 in    
Wind  
Wind Speed 3 mph ()    
Max Wind Speed 8 mph    
Max Gust Speed -    
Visibility 10.0 miles    
Events      
Averages and records for this station are not official NWS values.
T = Trace of Precipitation, MM = Missing Value Source: Averaged Metar Reports

Daily Weather History Graph

Daily Weather History Graph

Search for Another Location

Airport or City:

Trip Planner

Search our weather history database for the weather conditions in past years. The results will help you decide how hot, cold, wet, or windy it might be!

Date:

Astronomy

Oct. 22, 2012 Rise Set
Actual Time 7:56 AM EDT 6:59 PM EDT
Civil Twilight 7:30 AM EDT 7:25 PM EDT
Nautical Twilight 7:01 AM EDT 7:55 PM EDT
Astronomical Twilight 6:31 AM EDT 8:24 PM EDT
Moon 2:53 PM EDT (10/22) 12:58 AM EDT (10/22)
Length of Visible Light 11h 54m
Length of Day
11h 03m
First Quarter, 56% of the Moon is Illuminated
Oct 22
First Quarter
Oct 29
Full
Nov 6
Last Quarter
Nov 13
New
Nov 20
First Quarter

Hourly Weather History & Observations

Time (EDT) Temp. Dew Point Humidity Pressure Visibility Wind Dir Wind Speed Gust Speed Precip Events Conditions
12:15 AM 57.2 °F 48.2 °F 72% 30.15 in 10.0 mi SE 4.6 mph - N/A   Clear
12:35 AM 57.2 °F 48.2 °F 72% 30.15 in 10.0 mi SSE 3.5 mph - N/A   Clear
12:55 AM 55.4 °F 48.2 °F 77% 30.15 in 10.0 mi Calm Calm - N/A   Clear
1:15 AM 55.4 °F 48.2 °F 77% 30.15 in 10.0 mi SE 3.5 mph - N/A   Clear
1:55 AM 55.4 °F 48.2 °F 77% 30.15 in 10.0 mi Calm Calm - N/A   Scattered Clouds
2:15 AM 53.6 °F 48.2 °F 82% 30.15 in 10.0 mi ESE 3.5 mph - N/A   Partly Cloudy
2:35 AM 55.4 °F 48.2 °F 77% 30.15 in 10.0 mi Calm Calm - N/A   Clear
2:55 AM 53.6 °F 50.0 °F 88% 30.15 in 10.0 mi ESE 5.8 mph - N/A   Scattered Clouds
3:15 AM 55.4 °F 50.0 °F 82% 30.15 in 10.0 mi ESE 4.6 mph - N/A   Overcast
3:35 AM 57.2 °F 50.0 °F 77% 30.15 in 10.0 mi East 4.6 mph - N/A   Overcast
3:55 AM 57.2 °F 50.0 °F 77% 30.15 in 10.0 mi ESE 4.6 mph - N/A   Overcast
4:15 AM 57.2 °F 50.0 °F 77% 30.15 in 10.0 mi ESE 4.6 mph - N/A   Overcast
4:55 AM 57.2 °F 50.0 °F 77% 30.16 in 10.0 mi Calm Calm - N/A   Overcast
5:15 AM 57.2 °F 50.0 °F 77% 30.16 in 10.0 mi ESE 3.5 mph - N/A   Overcast
5:35 AM 59.0 °F 51.8 °F 77% 30.16 in 10.0 mi Calm Calm - N/A   Overcast
5:55 AM 60.8 °F 51.8 °F 72% 30.17 in 10.0 mi Calm Calm - N/A   Overcast
6:15 AM 59.0 °F 51.8 °F 77% 30.17 in 10.0 mi Calm Calm - N/A   Overcast
6:35 AM 59.0 °F 51.8 °F 77% 30.18 in 10.0 mi SE 3.5 mph - N/A   Overcast
6:55 AM 57.2 °F 51.8 °F 82% 30.18 in 10.0 mi ESE 4.6 mph - N/A   Overcast
7:15 AM 57.2 °F 50.0 °F 77% 30.19 in 10.0 mi SE 3.5 mph - N/A   Overcast
7:35 AM 57.2 °F 48.2 °F 72% 30.19 in 10.0 mi ESE 3.5 mph - N/A   Scattered Clouds
8:15 AM 57.2 °F 50.0 °F 77% 30.20 in 10.0 mi Calm Calm - N/A   Overcast
8:35 AM 57.2 °F 50.0 °F 77% 30.20 in 10.0 mi Calm Calm - N/A   Overcast
8:55 AM 60.8 °F 51.8 °F 72% 30.20 in 10.0 mi Calm Calm - N/A   Overcast
9:15 AM 60.8 °F 51.8 °F 72% 30.21 in 10.0 mi East 4.6 mph - N/A   Mostly Cloudy
9:35 AM 62.6 °F 51.8 °F 68% 30.21 in 10.0 mi SE 3.5 mph - N/A   Mostly Cloudy
9:55 AM 64.4 °F 53.6 °F 68% 30.22 in 10.0 mi ESE 3.5 mph - N/A   Mostly Cloudy
10:15 AM 66.2 °F 51.8 °F 60% 30.22 in 10.0 mi SE 5.8 mph - N/A   Mostly Cloudy
10:35 AM 69.8 °F 51.8 °F 53% 30.22 in 10.0 mi SE 4.6 mph - N/A   Scattered Clouds
10:55 AM 69.8 °F 51.8 °F 53% 30.21 in 10.0 mi SSE 3.5 mph - N/A   Scattered Clouds
11:15 AM 71.6 °F 51.8 °F 50% 30.21 in 10.0 mi SSE 4.6 mph - N/A   Scattered Clouds
11:35 AM 73.4 °F 48.2 °F 41% 30.21 in 10.0 mi South 3.5 mph - N/A   Clear
11:55 AM 75.2 °F 46.4 °F 36% 30.21 in 10.0 mi SSW 4.6 mph - N/A   Clear
12:15 PM 77.0 °F 46.4 °F 34% 30.21 in 10.0 mi South 5.8 mph - N/A   Clear
12:35 PM 78.8 °F 46.4 °F 32% 30.21 in 10.0 mi South 5.8 mph - N/A   Clear
12:55 PM 77.0 °F 46.4 °F 34% 30.20 in 10.0 mi Variable 5.8 mph - N/A   Mostly Cloudy
1:15 PM 77.0 °F 46.4 °F 34% 30.19 in 10.0 mi WSW 4.6 mph - N/A   Mostly Cloudy
1:35 PM 78.8 °F 46.4 °F 32% 30.18 in 10.0 mi SW 4.6 mph - N/A   Scattered Clouds
1:55 PM 80.6 °F 46.4 °F 30% 30.17 in 10.0 mi SSW 8.1 mph - N/A   Partly Cloudy
2:15 PM 78.8 °F 46.4 °F 32% 30.16 in 10.0 mi Variable 4.6 mph - N/A   Clear
2:35 PM 80.6 °F 44.6 °F 28% 30.15 in 10.0 mi Variable 3.5 mph - N/A   Partly Cloudy
2:55 PM 80.6 °F 44.6 °F 28% 30.14 in 10.0 mi WSW 4.6 mph - N/A   Partly Cloudy
3:15 PM 80.6 °F 44.6 °F 28% 30.13 in 10.0 mi SW 3.5 mph - N/A   Clear
3:35 PM 80.6 °F 44.6 °F 28% 30.12 in 10.0 mi WSW 5.8 mph - N/A   Clear
3:55 PM 80.6 °F 46.4 °F 30% 30.12 in 10.0 mi Calm Calm - N/A   Clear
4:15 PM 80.6 °F 46.4 °F 30% 30.12 in 10.0 mi SW 5.8 mph - N/A   Clear
4:35 PM 80.6 °F 46.4 °F 30% 30.12 in 10.0 mi West 3.5 mph - N/A   Clear
4:55 PM 80.6 °F 46.4 °F 30% 30.12 in 10.0 mi West 4.6 mph - N/A   Clear
5:15 PM 78.8 °F 46.4 °F 32% 30.12 in 10.0 mi Variable 4.6 mph - N/A   Clear
5:35 PM 78.8 °F 46.4 °F 32% 30.12 in 10.0 mi Calm Calm - N/A   Clear
5:55 PM 78.8 °F 48.2 °F 34% 30.13 in 10.0 mi Calm Calm - N/A   Clear
6:15 PM 78.8 °F 48.2 °F 34% 30.13 in 10.0 mi Calm Calm - N/A   Clear
6:35 PM 75.2 °F 53.6 °F 47% 30.14 in 10.0 mi Calm Calm - N/A   Clear
6:55 PM 71.6 °F 51.8 °F 50% 30.15 in 10.0 mi Calm Calm - N/A   Clear
7:15 PM 69.8 °F 51.8 °F 53% 30.15 in 10.0 mi Calm Calm - N/A   Clear
7:35 PM 64.4 °F 53.6 °F 68% 30.16 in 10.0 mi Calm Calm - N/A   Clear
7:55 PM 64.4 °F 53.6 °F 68% 30.16 in 10.0 mi Calm Calm - N/A   Clear
8:15 PM 62.6 °F 53.6 °F 72% 30.17 in 10.0 mi Calm Calm - N/A   Clear
8:35 PM 62.6 °F 53.6 °F 72% 30.16 in 10.0 mi Calm Calm - N/A   Clear
8:55 PM 62.6 °F 53.6 °F 72% 30.16 in 10.0 mi Calm Calm - N/A   Clear
9:15 PM 60.8 °F 53.6 °F 77% 30.16 in 10.0 mi Calm Calm - N/A   Clear
9:55 PM 60.8 °F 53.6 °F 77% 30.16 in 10.0 mi Calm Calm - N/A   Clear
10:15 PM 60.8 °F 53.6 °F 77% 30.16 in 10.0 mi Calm Calm - N/A   Clear
10:35 PM 59.0 °F 51.8 °F 77% 30.16 in 10.0 mi Calm Calm - N/A   Clear
10:55 PM 60.8 °F 51.8 °F 72% 30.16 in 10.0 mi Calm Calm - N/A   Clear
11:15 PM 57.2 °F 51.8 °F 82% 30.16 in 10.0 mi SE 4.6 mph - N/A   Clear
11:35 PM 57.2 °F 51.8 °F 82% 30.16 in 10.0 mi Calm Calm - N/A   Clear
11:55 PM 59.0 °F 51.8 °F 77% 30.15 in 10.0 mi ESE 4.6 mph - N/A   Clear